DW3263 Weather Reports


time (UTC)temp
C
wind
direction
speed
KPH
gust
KPH
rain 1hr
cm
rain 24hr
cm
rain mn
cm
humidity
%
barometer
mb
20260905040019 20 0.0 0.0 0.00 0.00 0.00 100 1011.2
20260905035019 20 0.0 0.0 0.00 0.00 0.00 100 1011.2
20260905034020 20 0.0 0.0 0.00 0.00 0.00 100 1011.2
20260905033020 21 0.0 1.6 0.00 0.03 0.00 100 1011.1
20260905032020 21 0.0 1.6 0.00 0.03 0.00 100 1011.1
20260905031020 21 0.0 0.0 0.00 0.03 0.00 100 1010.9
20260905030020 21 0.0 3.2 0.00 0.03 0.00 100 1010.9
20260905025020 21 0.0 1.6 0.00 0.03 0.00 100 1010.9
20260905024020 21 315 1.6 4.8 0.00 0.03 0.00 100 1010.8
20260905023032 22 0.0 3.2 0.00 0.03 0.00 100 1010.8
20260905022020 22 0.0 0.0 0.00 0.03 0.00 100 1010.7
20260905021231 23 0.0 0.0 0.00 0.03 0.00 100 1010.7
20260905020020 23 0.0 0.0 0.00 0.03 0.00 100 1010.6
20260905015020 24 0.0 3.2 0.00 0.03 0.00 100 1010.7
20260905014020 25 315 1.6 6.4 0.00 0.05 0.00 100 1010.7
20260905013020 25 315 3.2 6.4 0.00 0.08 0.00 100 1010.7
20260905012020 24 315 3.2 8.0 0.00 0.08 0.00 100 1010.7
20260905011232 24 315 1.6 6.4 0.00 0.08 0.00 100 1010.6
20260905010020 23 315 1.6 3.2 0.00 0.08 0.00 100 1010.5
20260905005234 23 0.0 1.6 0.00 0.08 0.00 100 1010.5
20260905004020 23 0.0 0.0 0.00 0.08 0.00 100 1010.6
20260905003020 24 0.0 1.6 0.00 0.08 0.00 100 1010.5
20260905002444 25 0.0 0.0 0.00 0.08 0.00 100 1010.3
20260905001020 25 0.0 0.0 0.00 0.08 0.00 100 1010.3
20260905000020 25 0.0 0.0 0.00 0.08 0.00 100 1010.2
20260904235447 25 0.0 0.0 0.00 0.08 0.00 100 1010.1
20260904234443 25 0.0 0.0 0.00 0.08 0.00 6 1010.1
20260904233020 26 0.0 0.0 0.00 0.08 0.00 27 1010.1
20260904232020 26 0.0 0.0 0.00 0.08 0.00 31 1010.1
20260904231020 26 0.0 3.2 0.00 0.08 0.00 41 1010.3
20260904230020 27 315 1.6 6.4 0.00 0.08 0.00 42 1010.3
20260904225020 27 315 1.6 4.8 0.00 0.08 0.00 46 1010.3
20260904224020 27 315 3.2 8.0 0.00 0.08 0.00 52 1010.1
20260904223020 28 315 1.6 6.4 0.00 0.08 0.00 51 1010.2
20260904222020 28 315 1.6 4.8 0.00 0.08 0.00 51 1010.2
20260904221020 28 0.0 3.2 0.00 0.08 0.00 51 1010.3
20260904220020 29 0.0 3.2 0.00 0.08 0.00 52 1010.3
20260904215020 29 0.0 1.6 0.00 0.08 0.00 51 1010.4
20260904214445 28 0.0 4.8 0.00 0.08 0.00 55 1010.7
20260904213020 28 315 1.6 6.4 0.00 0.08 0.00 60 1010.8
20260904212020 28 315 3.2 8.0 0.00 0.08 0.00 61 1010.9
20260904211020 28 315 1.6 3.2 0.00 0.08 0.00 53 1010.9
20260904210020 28 315 1.6 6.4 0.00 0.08 0.00 60 1010.8
20260904205020 28 315 1.6 6.4 0.00 0.08 0.00 62 1010.8
20260904204020 30 315 3.2 8.0 0.00 0.08 0.00 62 1010.9
20260904203030 29 315 3.2 8.0 0.00 0.08 0.00 62 1010.8
20260904202020 29 315 8.0 12.9 0.00 0.08 0.00 62 1011.0
20260904201230 29 315 8.0 17.7 0.00 0.08 0.00 61 1011.0
20260904200019 29 315 4.8 14.5 0.00 0.08 0.00 62 1011.0
20260904195020 29 293 3.2 12.9 0.00 0.08 0.00 62 1010.9
20260904194020 28 293 3.2 6.4 0.00 0.08 0.00 62 1011.1
20260904193020 28 293 4.8 14.5 0.00 0.08 0.00 62 1011.2
20260904192020 28 293 1.6 6.4 0.00 0.08 0.00 62 1011.3
20260904191230 28 315 3.2 12.9 0.00 0.08 0.00 62 1011.3
20260904190020 28 293 4.8 14.5 0.00 0.08 0.00 62 1011.5
20260904185019 28 293 3.2 9.7 0.00 0.08 0.00 62 1011.8
20260904184233 28 293 4.8 12.9 0.00 0.08 0.00 62 1012.1
20260904183020 28 293 4.8 14.5 0.00 0.08 0.00 61 1012.4
20260904182021 28 293 4.8 11.3 0.00 0.08 0.00 62 1012.4
20260904181231 28 293 4.8 12.9 0.00 0.08 0.00 59 1012.5
20260904180020 27 293 4.8 9.7 0.00 0.08 0.00 61 1012.7
20260904175020 27 293 8.0 16.1 0.00 0.08 0.00 62 1012.6
20260904174018 28 270 6.4 14.5 0.00 0.08 0.00 61 1012.6
20260904173020 27 270 4.8 11.3 0.00 0.08 0.00 61 1012.6
20260904172021 28 270 4.8 12.9 0.00 0.08 0.00 61 1012.6
20260904171020 27 270 6.4 14.5 0.00 0.08 0.00 62 1012.6
20260904170020 27 270 3.2 11.3 0.00 0.08 0.00 61 1012.7
20260904165229 27 270 6.4 11.3 0.00 0.08 0.00 62 1012.9
20260904164018 28 270 3.2 9.7 0.00 0.08 0.00 62 1012.8
20260904163020 27 270 1.6 6.4 0.00 0.08 0.00 61 1013.0
20260904162019 28 293 3.2 11.3 0.00 0.08 0.00 62 1013.0
20260904161018 27 0.0 4.8 0.00 0.08 0.00 61 1013.1
20260904160446 27 293 3.2 12.9 0.00 0.08 0.00 61 1013.2
20260904155019 26 293 4.8 14.5 0.00 0.08 0.00 58 1013.1
20260904154019 27 293 3.2 12.9 0.00 0.08 0.00 58 1013.2
20260904153444 27 293 1.6 6.4 0.00 0.08 0.00 58 1013.3
20260904152232 26 293 3.2 9.7 0.00 0.08 0.00 59 1013.2
20260904151019 26 293 6.4 11.3 0.00 0.08 0.00 58 1013.1
20260904150229 26 293 1.6 6.4 0.00 0.08 0.00 49 1013.1
20260904145020 26 293 1.6 6.4 0.00 0.08 0.00 49 1013.3
20260904144019 26 315 1.6 6.4 0.00 0.08 0.00 43 1013.4
20260904143018 25 315 4.8 16.1 0.00 0.08 0.00 44 1013.3
20260904142018 25 315 3.2 14.5 0.00 0.08 0.00 40 1013.2
20260904141018 25 315 4.8 16.1 0.00 0.08 0.00 30 1013.1
20260904140019 25 293 4.8 8.0 0.00 0.08 0.00 18 1013.1
20260904135018 25 293 4.8 9.7 0.00 0.08 0.00 100 1013.0
20260904134019 24 293 6.4 12.9 0.00 0.08 0.00 100 1013.1
20260904133019 24 338 3.2 9.7 0.00 0.08 0.00 100 1013.1
20260904132019 23 0 3.2 6.4 0.00 0.08 0.00 100 1013.2
20260904131229 23 0 1.6 4.8 0.00 0.08 0.00 100 1013.3
20260904130018 21 0.0 3.2 0.00 0.08 0.00 100 1013.3
20260904125019 21 0 3.2 4.8 0.00 0.08 0.00 100 1013.3
20260904124019 21 0 1.6 4.8 0.00 0.08 0.00 100 1013.4
20260904123019 21 0.0 3.2 0.00 0.08 0.00 100 1013.6
20260904122018 21 0.0 9.7 0.00 0.08 0.00 100 1013.4
20260904121019 21 0.0 0.0 0.00 0.08 0.00 100 1013.2
20260904120019 20 0.0 0.0 0.00 0.08 0.00 100 1013.6
20260904115019 20 0.0 0.0 0.00 0.08 0.00 100 1013.5
20260904114019 20 0.0 1.6 0.00 0.08 0.00 100 1013.6
20260904113019 19 0.0 0.0 0.00 0.08 0.00 100 1013.7
20260904112019 19 0.0 0.0 0.00 0.08 0.00 100 1013.6
20260904111230 19 0.0 0.0 0.00 0.08 0.00 100 1013.4
20260904110232 18 0.0 1.6 0.00 0.08 0.00 100 1013.4
20260904105019 18 315 1.6 3.2 0.00 0.08 0.00 100 1013.3
20260904104442 18 0.0 3.2 0.00 0.10 0.00 100 1013.1
20260904103229 18 0.0 0.0 0.00 0.13 0.00 100 1012.9
20260904102019 18 0.0 0.0 0.00 0.15 0.00 100 1012.6
20260904101019 18 0.0 0.0 0.00 0.20 0.00 100 1012.6
20260904100019 18 0.0 0.0 0.00 0.25 0.00 100 1012.7
20260904095019 18 0.0 0.0 0.00 0.25 0.00 100 1012.6
20260904094019 18 0.0 0.0 0.00 0.33 0.00 100 1012.5
20260904093019 18 0.0 0.0 0.00 0.41 0.00 100 1012.7
20260904092444 18 0.0 0.0 0.00 0.46 0.00 100 1012.6
20260904091019 18 0.0 0.0 0.00 0.51 0.00 100 1012.5
20260904090019 19 0.0 0.0 0.00 0.53 0.00 100 1012.5
20260904085019 19 0.0 0.0 0.00 0.61 0.00 100 1012.6
20260904084019 19 0.0 1.6 0.00 0.76 0.00 100 1012.8
20260904083019 19 0.0 0.0 0.00 0.76 0.00 100 1012.7
20260904082019 19 0.0 0.0 0.00 0.76 0.00 100 1012.6
20260904081232 18 0.0 0.0 0.00 0.76 0.00 100 1012.7
20260904080019 18 0.0 0.0 0.00 0.76 0.00 100 1012.6
20260904075019 18 0.0 0.0 0.00 0.79 0.00 100 1012.4
20260904074019 18 0.0 0.0 0.00 0.79 0.00 100 1012.4
20260904073019 18 0.0 0.0 0.00 0.79 0.00 100 1012.2
20260904072019 18 0.0 0.0 0.00 0.84 0.00 100 1012.0
20260904071019 18 0.0 0.0 0.00 1.04 0.00 100 1012.0
20260904070019 18 0.0 0.0 0.00 1.07 0.00 100 1011.7
20260904065230 18 0.0 0.0 0.00 1.09 0.00 100 1011.7
20260904064020 18 0.0 0.0 0.00 1.09 0.00 100 1011.4
20260904063019 18 0.0 0.0 0.00 1.09 0.00 100 1011.3
20260904062019 18 0.0 0.0 0.00 1.09 0.00 100 1011.4
20260904061019 19 0.0 0.0 0.00 1.09 0.00 100 1010.9
20260904060019 19 0.0 0.0 0.00 1.09 0.00 100 1011.0
20260904055019 19 0.0 4.8 0.00 1.09 0.00 100 1010.8
20260904054019 19 315 1.6 8.0 0.00 1.09 0.00 100 1011.0
20260904053019 19 0.0 0.0 0.00 1.09 0.00 100 1011.1
20260904052019 20 0.0 3.2 0.00 1.09 0.00 100 1011.1
20260904051512 19 315 0.0 3.2 0.00 1.09 0.00 100 1010.3
20260904050520 20 0.0 0.0 0.00 1.09 0.00 100 1011.2
20260904045520 20 0.0 1.6 0.00 1.09 0.00 100 1011.0
20260904044520 20 0.0 3.2 0.00 1.09 0.00 100 1011.2
20260904043943 20 315 1.6 4.8 0.00 1.09 0.00 100 1011.4
20260904042731 20 0.0 1.6 0.03 1.09 0.00 100 1011.7
20260904041520 21 315 1.6 4.8 0.03 1.09 0.00 100 1011.8
20260904040946 21 315 1.6 4.8 0.03 1.09 0.00 100 1012.1